www.pogodaiklimat.ru

Погода и климат >> Архив погоды >> Россия >> Якутия >> Сангар


ПОГОДА в Сангаре

  • Прогноз погоды в Сангаре
  • Монитор погоды в Сангаре

АРХИВ ПОГОДЫ в Сангаре

Время (UTC), дата Ветер
(напр.,м/с)
 
Видим.   Явления Облачность Т
(С)
Тd
(С)
f
(%)
Тe
(С)
Тes
(С)
Комфортность P
(гПа)
Po
(гПа)
Тmin
(С)
Tmax
(С)
R
(мм)
R24
(мм)
S
(см)
06 13.09 З 4 10 км в посл. час ливневой дождь 10/10 150 м
[Cb calv]
+11.4 +10.6 95 +9 +9 988.7 977.5
09 13.09 З 10-15
{18}
10 км 10/10 300 м
[Cb calv]
+6.6 +5.0 90 +1 +1 994.3 982.7
12 13.09 СЗ 7-12
{16}
10 км в посл. час ливневой дождь 10/10 500 м
[Cb calv]
+4.7 +3.0 89 -1 -1 998.3 986.6 +11.4 6
15 13.09 С 2
{12}
10 км {ливн. осадки} 10/4 600 м
[Cb calv Ac und]
+3.2 +1.1 86 0 0 999.6 987.8
18 13.09 ЮЗ 2 10 км {ливн. осадки} 10/0
[Ac trans Ci fib]
+2.8 -2.0 71 0 0 1001.0 989.2
21 13.09 З 2 50 км ясно +0.9 -4.4 68 -2 -2 1002.4 990.5
00 14.09 З 3 50 км ясно +2.4 -3.9 63 -1 0 1004.6 992.7 +0.1 0.3
03 14.09 З 1 50 км ясно +5.3 -3.2 54 +5 +10 1004.8 993.0
06 14.09 штиль 0 50 км ясно +8.2 -4.5 40 +8 +12 1003.7 992.2
09 14.09 ЮВ 1 50 км ясно +7.7 -7.2 34 +8 +8 1003.7 992.2
12 14.09 СВ 2 10 км 1/1 1000 м
[Cb calv]
+1.3 -7.4 52 -1 -1 1004.8 992.9 +8.8
15 14.09 В 2 10 км 3/3 1000 м
[Sc diur, vesp]
+3.5 -7.6 44 +1 +1 1005.0 993.1
18 14.09 В 3 10 км 3/3 1000 м
[Sc]
+3.6 -6.1 49 0 0 1005.1 993.3
21 14.09 В 2 50 км ясно -0.4 -7.7 58 -4 -4 1005.3 993.3
00 15.09 В 3 50 км 3/0
[Ci fib]
+5.2 -5.3 47 +2 +4 1004.9 993.1 -1.0
03 15.09 В 4 50 км 6/0
[Ac trans Ci fib]
+10.5 -8.5 25 +9 +11 1003.8 992.3
06 15.09 В 7-12
{13}
50 км 6/0
[Ci fib]
+11.8 -7.6 25 +9 +10 1002.1 990.7
09 15.09 В 5-10
{12}
50 км 8/3 600 м
[Cb calv Ac trans Ci fib]
+10.4 -10.4 22 +8 +8 1002.7 991.2
12 15.09 ЮЗ 1 10 км 6/3 600 м
[Cb calv Ac trans]
+8.3 -7.4 32 +8 +8 1004.2 992.6 +12.5
15 15.09 СЗ 3 10 км 10/4 600 м
[Cb calv Ac und]
+4.4 +1.9 84 +1 +1 1005.0 993.2
18 15.09 СЗ 1 10 км 3/0
[Ac trans]
+0.2 -0.6 94 -2 -2 1006.1 994.2
21 15.09 З 2 50 км 10/0
[Ac und]
+1.1 +0.3 94 -3 -3 1006.6 994.7
00 16.09 СЗ 2 10 км 10/10 150 м
[St]
+3.3 +1.5 88 0 0 1007.8 996.0 -0.9
03 16.09 СЗ 4 50 км 10/3 300 м
[St Ac trans]
+5.6 +1.3 74 +2 +3 1007.9 996.2
06 16.09 СЗ 3 50 км 8/0
[Ac trans]
+7.4 +0.6 62 +5 +6 1007.8 996.2
09 16.09 СЗ 4 50 км 10/3 1000 м
[Cb calv Ac und]
+7.2 +1.0 65 +4 +4 1008.4 996.7
12 16.09 З 4 10 км 6/0
[Ac trans]
+5.2 +1.7 78 +1 +1 1008.4 996.6 +7.9
15 16.09 СЗ 4 10 км 10/0
[Ac trans Ci fib]
+3.1 +1.0 86 -2 -2 1007.9 996.0
18 16.09 СЗ 3 10 км 10/4 600 м
[Sc Ac und]
+3.4 +1.3 86 -1 -1 1006.8 995.0
21 16.09 З 4 20 км 10/10 270 м
[St]
+3.2 +1.1 86 -2 -2 995.4
00 17.09 З 3 20 км 10/10 300 м
[St]
+3.5 +0.6 81 -0 -0 1008.0 996.2 +3.0
03 17.09 СЗ 2 50 км 10/0
[Ci fib]
+6.0 +0.4 67 +4 +7 1008.3 996.6
06 17.09 СЗ 3 50 км 10/0
[Ac und]
+7.2 +0.7 63 +5 +5 1008.9 997.2
09 17.09 СЗ 4 50 км 10/4 600 м
[Cb calv Ac und]
+6.5 +0.4 65 +3 +3 1009.8 998.1
12 17.09 СЗ 4 10 км в посл. час ливневой дождь 10/5 1410 м
[Cb calv Ac und]
+4.8 +2.6 86 +1 +1 1010.1 998.3 +7.6 0.3
15 17.09 СЗ 4 10 км 10/0
[Ac trans Ci fib]
+4.6 +1.0 77 +1 +1 1009.5 997.7
18 17.09 З 5 10 км 10/0
[Ac trans Ci fib]
+3.0 +0.9 86 -2 -2 1008.9 999.0
21 17.09 СЗ 4 20 км 10/0
[Ac trans Ci fib]
+2.7 +0.9 88 -2 -2 1009.2 997.3
00 18.09 З 2 20 км 10/10 270 м
[St]
+3.3 +1.2 86 0 0 1010.4 998.6 +2.5
03 18.09 З 2 10 км слаб. ливневой дождь 10/10 270 м
[Cb calv]
+3.7 +2.7 93 +1 +1 1011.5 999.6
06 18.09 СЗ 2 10 км слаб. ливневой дождь 10/10 500 м
[Cb calv]
+4.4 +3.4 93 +2 +2 1012.4 1000.6
09 18.09 штиль 0 10 км слаб. ливневой дождь 10/10 180 м
[Cb calv]
+4.0 +3.5 97 +3 +3 1013.6 1001.8
12 18.09 В 2 10 км в посл. час ливневой дождь 10/10 120 м
[Cb calv]
+3.5 +3.0 97 0 0 1014.8 1002.9 +4.9 5
15 18.09 В 3 10 км в посл. час ливневой дождь 10/10 150 м
[Cb calv]
+2.7 +2.2 97 -2 -2 1015.0 1003.0
18 18.09 ЮВ 2 10 км {ливн. осадки} 10/10 450 м
[Cb calv]
+2.2 +1.7 96 -1 -1 1015.0 1003.0
21 18.09 В 2 20 км {ливн. осадки} 10/10 150 м
[Cb calv]
+1.7 +1.2 96 -2 -2 1014.8 1002.8
00 19.09 В 3 20 км {ливн. осадки} 10/10 180 м
[St]
+2.1 +1.0 92 -2 -2 1015.0 1003.0 +1.7 1
03 19.09 В 3 20 км 10/10 330 м
[St]
+3.8 +1.2 83 0 0 1014.2 1002.4
06 19.09 В 5 20 км 10/10 360 м
[St]
+4.7 +1.1 77 0 0 1014.0 1002.2
09 19.09 В 3 50 км 10/5 300 м
[St Ac trans Ci sp]
+4.7 -0.3 70 +1 +1 1014.2 1002.4
12 19.09 В 4 10 км 10/0
[Ac und]
+3.8 -0.8 72 -0 -0 1014.1 1002.3 +5.4
15 19.09 штиль 0 10 км 10/0
[Ac und]
+3.4 -1.0 73 +3 +3 1014.0 1002.3
18 19.09 СЗ 1 10 км 8/0
[Ac trans Ci fib]
+3.4 -0.7 74 +2 +2 1014.1 1002.3
21 19.09 штиль 0 20 км 10/4 600 м
[Cb calv Ac und]
+2.2 -0.8 81 +1 +1 1014.1 1002.2
00 20.09 З 2 20 км 10/3 600 м
[Cb calv Ac und]
+4.5 +0.9 77 +2 +2 1013.6 1001.8 +2.0
03 20.09 З 3 20 км 10/4 600 м
[Cb calv Ac und]
+5.6 +1.3 74 +2 +3 1013.1 1001.4

 

Местоположение метеостанции Сангар (Якутия, Россия): широта 63.95 долгота 127.40 высота над уровнем моря 96 м.

В архиве по умолчанию представлена погода в Сангаре за последнюю неделю. Архивные данные за месяц целиком и за предыдущие месяцы, начиная с января 2011 года, Вы можете получить, выбрав интересующий диапазон дат из раскрывающегося списка и нажав кнопку "Ввод!".


*Определитесь, кто Вы:
робот инопланетянин человек

Внимание! Время в таблицах - всемирное. Для получения местного времени необходимо прибавить поправку, которая равна 9 ч.

Смотрите также архив погоды в соседних городах и на ближайших метеорологических станциях:

Погода в Сого-Хае (Якутия, Россия) (61 км)
Погода в Батамае (Якутия, Россия) (109 км)
Погода в Хатырык-Хомо (Якутия, Россия) (127 км)
Погода в Сеген-Кюеле (Якутия, Россия) (142 км)
Погода в Намцах (Якутия, Россия) (175 км)
Погода в Бердигестяхе (Якутия, Россия) (188 км)
Погода в Себян-Кюеле (Якутия, Россия) (195 км)
Погода в Бестяхской Звероферме (Якутия, Россия) (217 км)
Погода в Верхоянском Перевозе (Якутия, Россия) (238 км)
Погода в Якутске (Якутия, Россия) (244 км)

Пояснения к столбцам:

Ветер - указаны скорость ветра в м/с - средняя за 10 мин, порывы в срок и между сроками (в фигурных скобках) и направление, откуда дует ветер: С - северный, СВ - северо-восточный, В - восточный, ЮВ - юго-восточный, Ю - южный, ЮЗ - юго-западный, З - западный, СЗ - северо-западный.
Видимость - горизонтальная дальность видимости в метрах или километрах. При видимости от 1 до 10 км при отсутствии осадков обычно наблюдается дымка, при ухудшении видимости до 1 км и менее - туман. В сухую погоду видимость может ухудшаться дымом, пылью или мглою.
Явления - указаны атмосферные явления, наблюдавшиеся в срок или в последний час перед сроком; фигурными скобками обозначены явления, наблюдавшиеся между сроками (за 1-3 часа до срока); квадратными скобками обозначены град или гололедные отложения с указанием их диаметра в мм.
Облачность - указаны через наклонную черту общая и нижняя облачность в баллах и высота нижней границы облаков в метрах; квадратными скобками обозначены формы облаков: Ci - перистые, Cs - перисто-слоистые, Cc - перисто-кучевые, Ac - высококучевые, As - высокослоистые, Sc - слоисто-кучевые, Ns - слоисто-дождевые, Cu - кучевые, Cb - кучево-дождевые. Подробнее классификацию облаков см. в Атласе облаков (PDF).
T - Температура воздуха - температура, измеренная на высоте 2 м над землей.
Td - Температура точки росы - температура, при понижении до которой содержащийся в воздухе водяной пар достигнет насыщения.
f - Относительная влажность воздуха - влажноcть воздуха, измеренная на высоте 2 м над землей.
Te - Эффективная температура - температура, которую ощущает одетый по сезону человек в тени. Характеристика душности погоды. При расчете учитывается влияние влажности воздуха и скорости ветра на теплоощущения человека.
Tes - Эффективная температура на солнце - температура, которую ощущает человек, с поправкой на солнечный нагрев. Характеристика знойности погоды. Зависит от высоты солнца над горизонтом, облачности и скорости ветра. Ночью, в пасмурную погоду, а также при ветре 12 м/с и более поправка равна нулю.
P - Атмосферное давление - приведенное к уровню моря атмосферное давление.
Po - Атмосферное давление - измеренное на уровне метеостанции атмосферное давление.
Tmin - Минимальная температура - минимум температуры воздуха на высоте 2 м над землей.
Tmax - Максимальная температура - максимум температуры воздуха на высоте 2 м над землей.
R - Количество осадков - Количество выпавших осадков за период времени, мм. При наведении курсора мыши на число - период времени, за который выпало указанное количество осадков.
R24 - Количество осадков - Количество выпавших осадков за 24 часа, мм.
S - Снежный покров - Высота снежного покрова, см. При наведении курсора мыши на число - состояние снежного покрова и степень покрытия местности в баллах.